Weerstation Grootegast  Weerstation Grootegast


15 daagse weersverwachting Bergen (NO)

  • Overzicht
  • Per uur
  • 15 dagen
  • Extra
  • Vergelijk
  • Kaarten
  • Dagkaart
  • Meer »
  • Info
  • Statistieken
  • Directe link
    Temp 6h Neerslag Wind  
 08:34     18:14    Daglengte: 9:40 Vandaag
20:00
10°
 
7
 08:37     18:11    Daglengte: 9:34 Morgen
02:00
11°
7.5 mm
6
08:00
12°
25.1 mm
5
14:00
10°
48.6 mm
1
20:00
51.1 mm
5
 08:39     18:08    Daglengte: 9:29 Maandag 22 Okt
02:00
29.1 mm
6
08:00
62.0 mm
7
14:00
69.7 mm
5
20:00
53.0 mm
5
 08:42     18:05    Daglengte: 9:23 Dinsdag 23 Okt
02:00
66.9 mm
7
08:00
77.1 mm
5
14:00
55.9 mm
7
Locatie info
Region: Hordaland
Latitude: 60.3907°N
Longitude: 5.3327°E
20 masl
Postcode: 5015
Temp/Neerslag /Baro Onweer/Dauwpunt
    Temp Baro 1h Neerslag Dauwpunt Wind UV Bewolking  
 08:34     18:14    Daglengte: 9:40 Vandaag
20:00
10°
Voelt als: 6.6°
1021.1 hPa
82%
7.2°
7
Windvlaag: 12 m/s
81%
21:00
10°
Voelt als: 6.5°
1020.6 hPa 0.6 mm
82%
7.8°
7
Windvlaag: 12.4 m/s
81%
22:00
10°
Voelt als: 6.4°
1020.1 hPa 0.8 mm
82%
8.2°
7
Windvlaag: 12.3 m/s
81%
23:00
10°
Voelt als: 6.5°
1019.8 hPa 0.9 mm
82%
8.8°
7
Windvlaag: 13.1 m/s
81%
 08:37     18:11    Daglengte: 9:34 Morgen
00:00
10°
Voelt als: 6.9°
1019.4 hPa 1.1 mm
82%
9.4°
7
Windvlaag: 13 m/s
81%
01:00
10°
1018.9 hPa 1.8 mm
82%
10.1°
7
Windvlaag: 12.5 m/s
81%
02:00
11°
1018.3 hPa 2.3 mm
82%
10.6°
6
Windvlaag: 11.9 m/s
81%
03:00
11°
1017.7 hPa 3.1 mm
82%
11.0°
6
Windvlaag: 11.6 m/s
81%
04:00
11°
1017.2 hPa 3.2 mm
82%
11.3°
5
Windvlaag: 10.5 m/s
81%
05:00
12°
1016.5 hPa 3.6 mm
82%
11.6°
5
Windvlaag: 10 m/s
81%
06:00
12°
1015.9 hPa 4.9 mm
82%
11.7°
5
Windvlaag: 9.9 m/s
81%
07:00
12°
1015.5 hPa 4.6 mm
82%
11.9°
4
Windvlaag: 9.3 m/s
81%
08:00
12°
1015.0 hPa 5.7 mm
82%
11.9°
5
Windvlaag: 9.2 m/s
81%
09:00
12°
1014.8 hPa 6.5 mm
82%
11.8°
5
Windvlaag: 9.2 m/s
81%
10:00
12°
1014.3 hPa 7.1 mm
82%
11.7°
4
Windvlaag: 8.6 m/s
81%
11:00
11°
1013.8 hPa 8.2 mm
82%
11.1°
4
Windvlaag: 7.8 m/s
81%
12:00
11°
1013.3 hPa 8.8 mm
82%
10.9°
3
Windvlaag: 6.9 m/s
81%
13:00
10°
1013.2 hPa 9.3 mm
82%
9.4°
2
Windvlaag: 6.9 m/s
81%
14:00
10°
Voelt als: 9.7°
1012.9 hPa 8.5 mm
82%
9.3°
1
Windvlaag: 3.1 m/s
81%
15:00
10°
Voelt als: 8.4°
1012.4 hPa 8.5 mm
82%
9.3°
2
Windvlaag: 3.5 m/s
81%
16:00
Voelt als: 7.5°
1012.1 hPa 8.9 mm
82%
8.3°
3
Windvlaag: 4.9 m/s
81%
17:00
Voelt als: 6.8°
1012.2 hPa 9.1 mm
82%
7.8°
3
Windvlaag: 4.7 m/s
81%
18:00
Voelt als: 6.6°
1012.4 hPa 8.5 mm
82%
7.4°
3
Windvlaag: 4.9 m/s
81%
19:00
Voelt als: 6.3°
1012.6 hPa 7.5 mm
82%
7.4°
3
Windvlaag: 6.7 m/s
80%
20:00
Voelt als: 6.2°
1012.7 hPa 8.6 mm
82%
7.4°
5
Windvlaag: 8.1 m/s
74%
21:00
Voelt als: 5.8°
1013.3 hPa 7.9 mm
82%
6.7°
5
Windvlaag: 9.5 m/s
66%
22:00
Voelt als: 5.8°
1013.7 hPa
82%
5.2°
5
Windvlaag: 8.6 m/s
29%
23:00
Voelt als: 5.3°
1014.5 hPa
82%
4.2°
6
Windvlaag: 9.9 m/s
29%
 08:39     18:08    Daglengte: 9:29 Maandag 22 Okt
00:00
Voelt als: 4.9°
1014.8 hPa 10.4 mm
82%
4.4°
5
Windvlaag: 9 m/s
78%
01:00
Voelt als: 3.9°
1015.3 hPa 10.8 mm
82%
4.3°
6
Windvlaag: 13.4 m/s
56%
02:00
Voelt als: 4.2°
1015.8 hPa
82%
2.8°
6
Windvlaag: 10.4 m/s
30%
03:00
Voelt als: 4.0°
1016.0 hPa 10.4 mm
74%
2.5°
6
Windvlaag: 10.7 m/s
20%
04:00
Voelt als: 3.8°
1016.0 hPa 10.4 mm
75%
2.2°
7
Windvlaag: 11.8 m/s
34% warningclass
05:00
Voelt als: 3.7°
1015.8 hPa 10.8 mm
82%
1.9°
7
Windvlaag: 12 m/s
57% warningclass
06:00
Voelt als: 3.7°
1015.9 hPa 8.1 mm
82%
3.8°
7
Windvlaag: 12.9 m/s
44% warningclass
07:00
Voelt als: 3.9°
1016.3 hPa 11.4 mm
82%
2.8°
7
Windvlaag: 12.6 m/s
48% warningclass
08:00
Voelt als: 4.1°
1017.1 hPa 10.9 mm
80%
2.9°
7
Windvlaag: 11.5 m/s
76%
09:00
Voelt als: 4.0°
1017.6 hPa 11.2 mm
81%
3.5°
7
Windvlaag: 10.7 m/s
69%
10:00
Voelt als: 4.3°
1017.8 hPa 11.6 mm
82%
3.9°
6
Windvlaag: 11.1 m/s
59%
11:00
Voelt als: 4.6°
1018.3 hPa 11.9 mm
82%
4.1°
6
Windvlaag: 10.7 m/s
64%
12:00
Voelt als: 4.9°
1019.0 hPa 11.8 mm
82%
4.1°
6
Windvlaag: 11.8 m/s
71%
13:00
Voelt als: 5.0°
1019.1 hPa 11.7 mm
82%
3.7°
5
Windvlaag: 9.9 m/s
78%
14:00
Voelt als: 5.1°
1018.9 hPa 11.6 mm
82%
3.4°
5
Windvlaag: 8.9 m/s
71%
15:00
Voelt als: 5.2°
1018.5 hPa
82%
3.5°
5
Windvlaag: 7.6 m/s
72%
16:00
Voelt als: 5.1°
1017.8 hPa 11.5 mm
82%
3.5°
5
Windvlaag: 6.8 m/s
81%
17:00
Voelt als: 4.7°
1016.5 hPa 11.4 mm
100%
3.3°
4
Windvlaag: 6.8 m/s
88%
18:00
Voelt als: 4.6°
1015.0 hPa 8.9 mm
100%
5.0°
4
Windvlaag: 7.1 m/s
88%
19:00
Voelt als: 4.1°
1013.2 hPa 10.1 mm
100%
5.9°
4
Windvlaag: 7.4 m/s
88%
20:00
Voelt als: 4.2°
1011.4 hPa 11.0 mm
100%
6.5°
5
Windvlaag: 8.5 m/s
88%
21:00
Voelt als: 5.0°
1009.4 hPa 11.3 mm
100%
7.2°
6
Windvlaag: 9.7 m/s
88%
22:00
Voelt als: 4.9°
1007.1 hPa 11.1 mm
100%
7.2°
6
Windvlaag: 11.9 m/s
88%
23:00
Voelt als: 5.0°
1005.2 hPa 11.2 mm
100%
7.7°
7
Windvlaag: 14.4 m/s
88%
 08:42     18:05    Daglengte: 9:23 Dinsdag 23 Okt
00:00
Voelt als: 5.3°
1004.4 hPa 10.9 mm
100%
7.4°
7
Windvlaag: 14.7 m/s
88%
01:00
Voelt als: 5.4°
1003.7 hPa 10.8 mm
100%
8.1°
8
Windvlaag: 14.8 m/s
88%
02:00
Voelt als: 6.1°
1003.2 hPa 11.6 mm
100%
8.4°
7
Windvlaag: 14.6 m/s
86%
03:00
10°
Voelt als: 6.2°
1002.5 hPa 11.5 mm
100%
8.7°
8
Windvlaag: 11.3 m/s
87%
04:00
Voelt als: 6.2°
1001.8 hPa 11.7 mm
100%
8.5°
7
Windvlaag: 12.7 m/s
87%
05:00
Voelt als: 6.1°
1001.7 hPa 11.3 mm
100%
8.2°
7
Windvlaag: 12.2 m/s
82%
06:00
Voelt als: 5.5°
1001.7 hPa 11.8 mm
100%
7.6°
6
Windvlaag: 9.9 m/s
86%
07:00
Voelt als: 4.9°
1001.9 hPa 15.4 mm
100%
7.1°
6
Windvlaag: 6.3 m/s
85%
08:00
Voelt als: 4.8°
1002.0 hPa 15.3 mm
100%
6.8°
5
Windvlaag: 3.9 m/s
84%
09:00
Voelt als: 4.6°
1002.6 hPa 15.2 mm
92%
6.5°
5
Windvlaag: -5.4 m/s
75%
10:00
Voelt als: 4.3°
1003.2 hPa 15.2 mm
84%
6.1°
6
Windvlaag: -6.6 m/s
74%
11:00
Voelt als: 4.2°
1003.7 hPa 25.5 mm
83%
5.7°
5
Windvlaag: -6.6 m/s
68%
12:00
Voelt als: 3.9°
1004.2 hPa
28%
5.4°
6
Windvlaag: -6.7 m/s
63%
13:00
Voelt als: 3.5°
1004.7 hPa
36%
4.9°
6
Windvlaag: -6.3 m/s
62%
14:00
Voelt als: 3.3°
1005.2 hPa
49%
4.5°
7
Windvlaag: -2.6 m/s
62%
15:00
Voelt als: 2.9°
1005.6 hPa 26.8 mm
99%
4.3°
7
Windvlaag: 11.3 m/s
67%
16:00
Voelt als: 2.7°
1006.2 hPa 26.8 mm
100%
4.2°
7
Windvlaag: 11 m/s
73%
17:00
Voelt als: 2.6°
1006.9 hPa 27.0 mm
100%
3.9°
6
Windvlaag: 10.6 m/s
75%
18:00
Voelt als: 2.3°
1007.5 hPa 27.0 mm
99%
3.6°
6
Windvlaag: 12.5 m/s
72%
19:00
Voelt als: 2.1°
1008.1 hPa 26.9 mm
97%
3.5°
6
Windvlaag: 10.5 m/s
63%
Temp/Neerslag /Baro Onweer/Dauwpunt
    Temp Baro Neerslag Dauwpunt Wind Bewolking  
 08:34     18:14    Daglengte: 9:40 Vandaag
20:00
10°
Voelt als: 6.6°
1021.1 hPa   7.2°
7
81%
23:00
10°
Voelt als: 6.5°
1019.8 hPa 2.2 mm 8.8°
7
81%
 08:37     18:11    Daglengte: 9:34 Morgen
02:00
11°
1018.3 hPa 5.2 mm 10.6°
6
81%
05:00
12°
1016.5 hPa 9.9 mm 11.6°
5
81%
08:00
12°
1015.0 hPa 15.1 mm 11.9°
5
81%
11:00
11°
1013.8 hPa 21.9 mm 11.1°
4
81%
14:00
10°
Voelt als: 9.7°
1012.9 hPa 26.7 mm 9.3°
1
81%
17:00
Voelt als: 6.8°
1012.2 hPa 26.5 mm 7.8°
3
81%
20:00
Voelt als: 6.2°
1012.7 hPa 24.6 mm 7.4°
5
74%
23:00
Voelt als: 5.3°
1014.5 hPa 7.9 mm 4.2°
6
29%
 08:39     18:08    Daglengte: 9:29 Maandag 22 Okt
02:00
Voelt als: 4.2°
1015.8 hPa 21.2 mm 2.8°
6
30%
05:00
Voelt als: 3.7°
1015.8 hPa 31.6 mm 1.9°
7
57% warningclass
08:00
Voelt als: 4.1°
1017.1 hPa 30.4 mm 2.9°
7
76%
11:00
Voelt als: 4.6°
1018.3 hPa 34.6 mm 4.1°
6
64%
14:00
Voelt als: 5.1°
1018.9 hPa 35.1 mm 3.4°
5
71%
17:00
Voelt als: 4.7°
1016.5 hPa 22.9 mm 3.3°
4
88%
20:00
Voelt als: 4.2°
1011.4 hPa 30.1 mm 6.5°
5
88%
23:00
Voelt als: 5.0°
1005.2 hPa 33.6 mm 7.7°
7
88%
 08:42     18:05    Daglengte: 9:23 Dinsdag 23 Okt
02:00
Voelt als: 6.1°
1003.2 hPa 33.3 mm 8.4°
7
86%
05:00
Voelt als: 6.1°
1001.7 hPa 34.6 mm 8.2°
7
82%
08:00
Voelt als: 4.8°
1002.0 hPa 42.5 mm 6.8°
5
84%
11:00
Voelt als: 4.2°
1003.7 hPa 55.9 mm 5.7°
5
68%
14:00
Voelt als: 3.3°
1005.2 hPa   4.5°
7
62%
17:00
Voelt als: 2.6°
1006.9 hPa 80.6 mm 3.9°
6
75%
20:00
Voelt als: 2.0°
1008.8 hPa 80.8 mm 3.4°
6
61%
23:00
Voelt als: 2.0°
1010.8 hPa   3.7°
6
73%
 08:45     18:02    Daglengte: 9:17 Woensdag 24 Okt
02:00
Voelt als: 1.8°
1011.8 hPa 0.1 mm 3.6°
6
74%
05:00
Voelt als: 2.3°
1013.4 hPa   3.2°
5
78%
08:00
Voelt als: 3.1°
1014.9 hPa   2.9°
4
82%
11:00
Voelt als: 4.4°
1015.0 hPa   3.5°
3
86%
14:00
Voelt als: 5.6°
1015.0 hPa 0.2 mm 4.1°
3
91%
17:00
Voelt als: 5.3°
1014.0 hPa 1.1 mm 4.5°
3
91%
20:00
Voelt als: 5.5°
1013.1 hPa 6.4 mm 5.1°
3
92%
23:00
Voelt als: 5.5°
1012.0 hPa 4.2 mm 5.7°
3
92%
 08:47     17:59    Daglengte: 9:12 Donderdag 25 Okt
02:00
Voelt als: 5.6°
1011.0 hPa 6.2 mm 6.4°
4
92%
05:00
Voelt als: 5.3°
1010.8 hPa 0.8 mm 6.3°
4
91%
08:00
Voelt als: 5.0°
1010.6 hPa 1.5 mm 6.2°
5
91%
11:00
Voelt als: 5.4°
1010.3 hPa 0.8 mm 6.3°
5
91%
14:00
Voelt als: 5.9°
1009.8 hPa 1.5 mm 6.4°
4
91%
17:00
Voelt als: 5.7°
1008.0 hPa 0.6 mm 6.4°
4
91%
20:00
Voelt als: 5.7°
1006.2 hPa 0.9 mm 6.5°
4
92%
23:00
Voelt als: 4.9°
1004.3 hPa 0.6 mm 6.0°
4
84%
 08:50     17:57    Daglengte: 9:07 Vrijdag 26 Okt
02:00
Voelt als: 4.1°
1002.5 hPa 1.2 mm 5.3°
4
76%
05:00
Voelt als: 4.1°
1001.0 hPa 0.2 mm 5.4°
4
84%
08:00
Voelt als: 4.2°
999.6 hPa 0.3 mm 5.4°
4
92%
11:00
Voelt als: 4.4°
999.7 hPa   4.7°
3
84%
14:00
Voelt als: 4.7°
999.7 hPa   4.0°
3
76%
17:00
Voelt als: 3.6°
999.3 hPa 0.4 mm 3.6°
3
70%
20:00
Voelt als: 2.6°
999.0 hPa 0.4 mm 3.2°
3
63%
23:00
Voelt als: 1.8°
1000.0 hPa   2.7°
3
64%
 08:52     17:54    Daglengte: 9:02 Zaterdag 27 Okt
02:00
Voelt als: 1.1°
1001.0 hPa   2.3°
3
65%
05:00
Voelt als: 0.3°
1002.0 hPa   1.6°
3
68%
08:00
Voelt als: -0.4°
1003.0 hPa   1.0°
3
71%
11:00
Voelt als: 1.4°
1004.9 hPa   1.3°
4
70%
14:00
Voelt als: 3.4°
1006.7 hPa   1.7°
4
69%
17:00
Voelt als: 2.6°
1007.4 hPa   1.9°
4
57%
20:00
Voelt als: 1.8°
1008.2 hPa   2.0°
4
45%
 08:55     17:51    Daglengte: 8:56 Zondag 28 Okt
02:00
Voelt als: -1.0°
1013.7 hPa   -0.0°
3
57%
07:00
Voelt als: -2.1°
1013.8 hPa   -1.3°
3
45%
13:00
Voelt als: 2.7°
1016.8 hPa   -2.3°
2
1%
19:00
Voelt als: -0.7°
1018.1 hPa   -0.8°
3
11%
 08:58     17:48    Daglengte: 8:50 Maandag 29 Okt
01:00
Voelt als: -2.8°
1018.8 hPa 0.3 mm -1.5°
3
46% warningclass
07:00
Voelt als: -3.6°
1014.2 hPa 7.4 mm -2.0°
4
45% warningclass
13:00
Voelt als: 1.8°
1013.4 hPa 31.2 mm -3.6°
3
0%
19:00
Voelt als: -0.7°
1014.4 hPa 41.5 mm -0.2°
3
6%
 09:00     17:46    Daglengte: 8:46 Dinsdag 30 Okt
01:00
10°
Voelt als: 6.2°
1005.6 hPa 5.5 mm 8.6°
8
1%
07:00
11°
1001.3 hPa 40.7 mm 9.4°
12
1%
13:00
Voelt als: 2.9°
1015.6 hPa 1.4 mm 1.2°
2
60%
19:00
Voelt als: 2.1°
1015.2 hPa 2.2 mm 0.5°
1
62%
 09:03     17:43    Daglengte: 8:40 Woensdag 31 Okt
01:00
Voelt als: 2.1°
1014.6 hPa 2.5 mm 0.1°
1
64%
07:00
Voelt als: 1.7°
1014.1 hPa 2.1 mm -0.8°
1
52%
13:00
Voelt als: 1.8°
1013.1 hPa 1.1 mm 0.3°
2
53%
19:00
Voelt als: 0.6°
1011.1 hPa 1.8 mm 0.2°
3
62%
 09:06     17:40    Daglengte: 8:34 Donderdag 01 Nov
01:00
Voelt als: 0.5°
1009.1 hPa 2.3 mm 0.2°
3
69%
07:00
Voelt als: 0.8°
1007.2 hPa 1.8 mm -0.1°
2
63%
13:00
Voelt als: 3.2°
1006.0 hPa 1.4 mm 1.0°
1
62%
19:00
Voelt als: 1.8°
1004.6 hPa 2.0 mm 0.3°
2
66%
 09:08     17:38    Daglengte: 8:30 Vrijdag 02 Nov
01:00
1004.2 hPa 1.7 mm -0.3°
0
63%
07:00
Voelt als: 2.1°
1003.8 hPa 1.0 mm -1.0°
1
51%
13:00
Voelt als: 3.6°
1004.0 hPa 1.9 mm 0.2°
1
49%
19:00
Voelt als: 1.4°
1004.4 hPa 1.4 mm -0.6°
1
60%
 09:11     17:35    Daglengte: 8:24 Zaterdag 03 Nov
01:00
Voelt als: 0.3°
1004.6 hPa 1.0 mm -0.9°
2
59%
07:00
Voelt als: -0.1°
1004.1 hPa 0.9 mm -0.9°
2
59%
13:00
Voelt als: 2.5°
1003.9 hPa 1.0 mm 0.4°
1
58%
19:00
Voelt als: 1.1°
1003.2 hPa 1.8 mm -0.2°
2
62%
 09:13     17:32    Daglengte: 8:19 Zondag 04 Nov
01:00
Voelt als: 0.5°
1002.9 hPa 2.0 mm 0.2°
2
53%
07:00
Voelt als: 0.4°
1002.2 hPa 1.9 mm 0.1°
2
58%
13:00
Voelt als: 4.1°
1002.7 hPa 2.4 mm 1.4°
1
49%
  CAPE Lifted Index Hail Supercell Tornado SRH 3km CL BTM PRES CL TOP PRES Swiss DWD icon SMHI TS
 08:34     18:14    Daglengte: 9:40 Vandaag
20:00 0 J/kg 6.5 K 0 % 0 % 0 % 0 m²/s² 0 0 6.62 3
21:00 0 J/kg 4.4 K 0 % 0 % 0 % 0 m²/s² 0 0 4.79 3
22:00 0 J/kg 3.6 K 0 % 0 % 0 % 0 m²/s² 0 0 5.01 80
23:00 0 J/kg 3.7 K 0 % 0 % 0 % 0 m²/s² 0 0 5.32 80
 08:37     18:11    Daglengte: 9:34 Morgen
00:00 0 J/kg 3.0 K 0 % 0 % 0 % 0 m²/s² 0 0 3.57 61
01:00 0 J/kg 2.5 K 0 % 0 % 0 % 0 m²/s² 0 0 2.92 61
02:00 0 J/kg 2.7 K 0 % 0 % 0 % 0 m²/s² 0 0 3.18 61
03:00 0 J/kg 2.9 K 0 % 0 % 0 % 0 m²/s² 0 0 3.23 61
04:00 1 J/kg 3.2 K 0 % 0 % 0 % 0 m²/s² 0 0 3.44 61
05:00 1 J/kg 3.4 K 0 % 0 % 0 % 0 m²/s² 0 0 3.61 61
06:00 1 J/kg 3.6 K 0 % 0 % 0 % 0 m²/s² 0 0 3.81 63
07:00 1 J/kg 3.1 K 0 % 0 % 0 % 0 m²/s² 0 0 3.58 61
08:00 2 J/kg 3.4 K 0 % 0 % 0 % 0 m²/s² 0 0 3.88 63
09:00 4 J/kg 4.3 K 0 % 0 % 0 % 0 m²/s² 0 0 4.33 63
10:00 15 J/kg 4.0 K 0 % 0 % 0 % 0 m²/s² 0 0 4.03 63
11:00 5 J/kg 4.9 K 0 % 0 % 0 % 0 m²/s² 0 0 5.11 63
12:00 4 J/kg 5.6 K 0 % 0 % 0 % 0 m²/s² 0 0 5.72 63
13:00 3 J/kg 7.2 K 0 % 0 % 0 % 0 m²/s² 0 0 7.29 63
14:00 3 J/kg 10.1 K 0 % 0 % 0 % 0 m²/s² 0 0 10.22 61
15:00 26 J/kg 11.2 K 0 % 0 % 0 % 0 m²/s² 0 0 11.32 61
16:00 15 J/kg 11.4 K 0 % 0 % 0 % 0 m²/s² 0 0 11.58 61
17:00 57 J/kg 10.2 K 0 % 0 % 0 % 0 m²/s² 0 0 10.44 61
18:00 56 J/kg 10.3 K 0 % 0 % 0 % 0 m²/s² 0 0 10.63 63
19:00 86 J/kg 8.3 K 0 % 0 % 0 % 0 m²/s² 0 0 9.08 61
20:00 170 J/kg 7.5 K 0 % 0 % 0 % 0 m²/s² 0 0 8.19 61
21:00 14 J/kg 9.1 K 0 % 0 % 0 % 0 m²/s² 0 0 10.6 80
22:00 78 J/kg 7.7 K 0 % 0 % 0 % 0 m²/s² 0 0 13.46 80
23:00 203 J/kg 6.5 K 0 % 0 % 0 % 0 m²/s² 0 0 7.25 80
 08:39     18:08    Daglengte: 9:29 Maandag 22 Okt
00:00 47 J/kg 7.1 K 0 % 0 % 0 % 0 m²/s² 0 0 7.58 80
01:00 215 J/kg 5.4 K 0 % 0 % 0 % 0 m²/s² 0 0 7.56 80
02:00 148 J/kg 5.5 K 0 % 0 % 0 % 0 m²/s² 0 0 9.79 80
03:00 195 J/kg 3.4 K 0 % 0 % 0 % 0 m²/s² 0 0 6.22 80
04:00 199 J/kg 1.6 K 0 % 0 % 0 % 0 m²/s² 0 0 4.51 95
05:00 217 J/kg 0.9 K 0 % 0 % 0 % 0 m²/s² 0 0 1.71 95
06:00 159 J/kg 0.8 K 0 % 0 % 0 % 0 m²/s² 0 0 2.69 95
07:00 361 J/kg -0.9 K 0 % 0 % 0 % 0 m²/s² 0 0 0.81 95
08:00 329 J/kg -1.1 K 0 % 0 % 0 % 0 m²/s² 0 0 -0.08 80
09:00 324 J/kg -1.3 K 0 % 0 % 0 % 0 m²/s² 0 0 -0.46 80
10:00 274 J/kg -1.3 K 0 % 0 % 0 % 0 m²/s² 0 0 -0.88 80
11:00 343 J/kg -0.1 K 0 % 0 % 0 % 0 m²/s² 0 0 1.07 80
12:00 311 J/kg 1.7 K 0 % 0 % 0 % 0 m²/s² 0 0 3.98 80
13:00 218 J/kg 3.1 K 0 % 0 % 0 % 0 m²/s² 0 0 4.51 80
14:00 122 J/kg 3.9 K 0 % 0 % 0 % 0 m²/s² 0 0 8.85 80
15:00 65 J/kg 4.5 K 0 % 0 % 0 % 0 m²/s² 0 0 4.95 80
16:00 54 J/kg 5.0 K 0 % 0 % 0 % 0 m²/s² 0 0 5.39 80
17:00 6 J/kg 5.7 K 0 % 0 % 0 % 0 m²/s² 0 0 6.09 80
18:00 1 J/kg 4.4 K 0 % 0 % 0 % 0 m²/s² 0 0 4.76 61
19:00 158 J/kg 3.2 K 0 % 0 % 0 % 0 m²/s² 0 0 3.56 63
20:00 89 J/kg 5.0 K 0 % 0 % 0 % 0 m²/s² 0 0 5.39 63
21:00 49 J/kg 6.1 K 0 % 0 % 0 % 0 m²/s² 0 0 6.46 63
22:00 11 J/kg 7.0 K 0 % 0 % 0 % 0 m²/s² 0 0 7.36 63
23:00 51 J/kg 6.3 K 0 % 0 % 0 % 0 m²/s² 0 0 6.57 63
 08:42     18:05    Daglengte: 9:23 Dinsdag 23 Okt
00:00 49 J/kg 6.2 K 0 % 0 % 0 % 0 m²/s² 0 0 6.47 63
01:00 96 J/kg 4.8 K 0 % 0 % 0 % 0 m²/s² 0 0 5.07 61
02:00 93 J/kg 4.8 K 0 % 0 % 0 % 0 m²/s² 0 0 5.07 63
03:00 96 J/kg 5.4 K 0 % 0 % 0 % 0 m²/s² 0 0 5.67 80
04:00 73 J/kg 5.9 K 0 % 0 % 0 % 0 m²/s² 0 0 6.17 80
05:00 67 J/kg 6.8 K 0 % 0 % 0 % 0 m²/s² 0 0 7.07 80
06:00 121 J/kg 6.9 K 0 % 0 % 0 % 0 m²/s² 0 0 7.26 80
07:00 133 J/kg 7.3 K 0 % 0 % 0 % 0 m²/s² 0 0 7.63 80
08:00 124 J/kg 8.0 K 0 % 0 % 0 % 0 m²/s² 0 0 8.33 80
09:00 152 J/kg 8.1 K 0 % 0 % 0 % 0 m²/s² 0 0 8.43 80
10:00 144 J/kg 8.6 K 0 % 0 % 0 % 0 m²/s² 0 0 8.93 80
11:00 118 J/kg 9.0 K 0 % 0 % 0 % 0 m²/s² 0 0 9.33 2
12:00 69 J/kg 9.6 K 0 % 0 % 0 % 0 m²/s² 0 0 9.93 2
13:00 19 J/kg 11.7 K 0 % 0 % 0 % 0 m²/s² 0 0 12.06 2
14:00 24 J/kg 12.0 K 0 % 0 % 0 % 0 m²/s² 0 0 12.33 3
15:00 27 J/kg 12.6 K 0 % 0 % 0 % 0 m²/s² 0 0 12.93 80
16:00 54 J/kg 12.5 K 0 % 0 % 0 % 0 m²/s² 0 0 13.25 80
17:00 47 J/kg 13.6 K 0 % 0 % 0 % 0 m²/s² 0 0 14.77 80
18:00 13 J/kg 16.5 K 0 % 0 % 0 % 0 m²/s² 0 0 18.21 80
19:00 32 J/kg 16.8 K 0 % 0 % 0 % 0 m²/s² 0 0 18.93 80
Temp Baro Wind Neerslag
  EWN Forecast EWN WRFDA DWD ICON FMI HIRLAM MET Norway GFS
 08:34     18:14    Daglengte: 9:40 Vandaag
20:00 9.7° 1021.1 hPa 6.6 m/s 0.0 mm 9.9° 1018.8 hPa 8.1 m/s 0.2 mm 8.4° 1021.6 hPa 4.8 m/s -0.7 mm 10.1° 1021.0 hPa 7.1 m/s 0.0 mm 10.1° 1021.4 hPa 6.6 m/s 0.0 mm 9.6° 1020.8 hPa 5.3 m/s
23:00 9.7° 1019.8 hPa 7.0 m/s 2.2 mm 10.2° 1017.6 hPa 8.3 m/s 10.8 mm 8.9° 1019.4 hPa 5.9 m/s 0.9 mm 10.3° 1019.9 hPa 7.1 m/s 0.0 mm 9.8° 1020.4 hPa 6.9 m/s 0.8 mm 9.2° 1019.4 hPa 4.9 m/s
 08:37     18:11    Daglengte: 9:34 Morgen
02:00 10.8° 1018.3 hPa 6.3 m/s 5.2 mm 11.4° 1016.2 hPa 6.4 m/s 26.6 mm 9.7° 1018.3 hPa 4.7 m/s 1.2 mm 12.4° 1018.4 hPa 6.5 m/s 0.0 mm 10.8° 1018.4 hPa 6.4 m/s 1.6 mm 10.1° 1017.8 hPa 5.8 m/s
05:00 11.7° 1016.5 hPa 4.8 m/s 9.9 mm 12.1° 1014.9 hPa 4.0 m/s 44.6 mm 10.3° 1016.5 hPa 3.9 m/s 6.0 mm 12.7° 1017.2 hPa 4.8 m/s 0.0 mm 11.9° 1016.3 hPa 5.1 m/s 2.4 mm 11.3° 1015.7 hPa 5.7 m/s
08:00 12.0° 1015.0 hPa 4.6 m/s 15.1 mm 12.1° 1013.6 hPa 3.1 m/s 57.8 mm 10.8° 1015.0 hPa 3.6 m/s 10.4 mm 12.7° 1016.4 hPa 4.3 m/s 0.0 mm 12.3° 1014.8 hPa 5.2 m/s 8.9 mm 11.9° 1014.6 hPa 4.7 m/s
11:00 11.3° 1013.8 hPa 3.8 m/s 21.9 mm 9.6° 1013.5 hPa 3.5 m/s 78.2 mm 10.6° 1013.7 hPa 1.7 m/s 19.0 mm 12.4° 1015.5 hPa 3.8 m/s 0.0 mm 12.1° 1013.6 hPa 4.0 m/s 11.1 mm 11.2° 1013.4 hPa 2.3 m/s
14:00 9.9° 1012.9 hPa 1.4 m/s 26.7 mm 8.9° 1012.1 hPa 1.1 m/s 100.1 mm 9.7° 1013.3 hPa 1.1 m/s 9.7 mm 12.1° 1013.4 hPa 2.8 m/s 0.0 mm 10.0° 1012.5 hPa 1.1 m/s 17.3 mm 9.5° 1011.9 hPa 3.4 m/s
17:00 8.7° 1012.2 hPa 3.2 m/s 26.5 mm 9.0° 1011.4 hPa 4.2 m/s 126.7 mm 8.1° 1012.6 hPa 1.3 m/s 4.8 mm 9.5° 1011.5 hPa 5.5 m/s 0.0 mm 8.7° 1012.1 hPa 2.5 m/s 14.1 mm 7.9° 1011.5 hPa 2.5 m/s
20:00 8.7° 1012.7 hPa 4.6 m/s 24.6 mm 9.4° 1011.9 hPa 7.4 m/s 140.7 mm 7.9° 1012.7 hPa 3.1 m/s 6.5 mm 8.7° 1013.0 hPa 3.6 m/s 0.0 mm 9.4° 1012.3 hPa 4.5 m/s 5.0 mm 9.0° 1013.4 hPa 5.5 m/s
23:00 8.4° 1014.5 hPa 5.7 m/s 7.9 mm 8.5° 1013.5 hPa 6.2 m/s 146.7 mm 6.8° 1013.4 hPa 4.4 m/s 3.6 mm 8.7° 1014.0 hPa 5.3 m/s 0.0 mm 8.9° 1015.0 hPa 6.0 m/s 1.8 mm 8.0° 1014.7 hPa 7.5 m/s
 08:39     18:08    Daglengte: 9:29 Maandag 22 Okt
02:00 7.7° 1015.8 hPa 6.3 m/s 21.2 mm 7.1° 1014.5 hPa 7.1 m/s 148.9 mm 5.9° 1015.2 hPa 4.4 m/s 2.8 mm 7.9° 1015.8 hPa 5.7 m/s 0.0 mm 8.1° 1015.9 hPa 6.9 m/s 0.9 mm 7.5° 1015.9 hPa 9.7 m/s
05:00 7.5° 1015.8 hPa 7.1 m/s 31.6 mm 7.5° 1014.7 hPa 8.0 m/s 151.1 mm 5.0° 1016.1 hPa 5.2 m/s 1.8 mm 7.5° 1017.5 hPa 5.7 m/s 0.0 mm 8.6° 1015.7 hPa 7.9 m/s 0.0 mm 7.2° 1017.0 hPa 9.6 m/s
08:00 7.7° 1017.1 hPa 6.6 m/s 30.4 mm 7.5° 1015.6 hPa 9.4 m/s 153.8 mm 5.4° 1017.5 hPa 3.4 m/s 3.2 mm 8.1° 1018.1 hPa 6.7 m/s 0.0 mm 8.3° 1017.1 hPa 7.2 m/s 0.4 mm 7.3° 1018.0 hPa 9.5 m/s
11:00 8.0° 1018.3 hPa 6.2 m/s 34.6 mm 7.8° 1017.2 hPa 6.0 m/s 159.1 mm 5.7° 1019.5 hPa 3.1 m/s 2.9 mm 8.4° 1020.1 hPa 6.4 m/s 0.0 mm 8.8° 1018.1 hPa 8.9 m/s 0.0 mm 7.6° 1019.4 hPa 7.8 m/s
14:00 8.0° 1018.9 hPa 5.2 m/s 35.1 mm 8.5° 1017.9 hPa 7.7 m/s 164.5 mm 6.4° 1019.8 hPa 2.4 m/s 2.5 mm 8.1° 1020.9 hPa 4.8 m/s 0.0 mm 8.8° 1018.9 hPa 5.7 m/s 0.0 mm 7.9° 1019.7 hPa 7.9 m/s
17:00 7.4° 1016.5 hPa 4.2 m/s 22.9 mm 7.2° 1015.5 hPa 5.6 m/s 166.2 mm 6.4° 1016.9 hPa 2.7 m/s 1.7 mm 8.6° 1016.5 hPa 4.4 m/s 0.0 mm 6.5° 1017.1 hPa 5.4 m/s
20:00 7.2° 1011.4 hPa 4.8 m/s 30.1 mm 8.6° 1011.4 hPa 6.7 m/s 175.9 mm 6.1° 1011.2 hPa 4.1 m/s 9.1 mm 7.4° 1010.0 hPa 4.8 m/s 6.0 mm 8.6° 1012.6 hPa 7.7 m/s
23:00 8.5° 1005.2 hPa 7.1 m/s 33.6 mm 8.8° 1007.1 hPa 7.1 m/s 188.5 mm 8.1° 1004.5 hPa 5.0 m/s 11.4 mm 10.0° 1004.5 hPa 8.9 m/s 7.7 mm 9.3° 1007.7 hPa 8.7 m/s
 08:42     18:05    Daglengte: 9:23 Dinsdag 23 Okt
02:00 9.4° 1003.2 hPa 7.1 m/s 33.3 mm 9.8° 1004.4 hPa 7.6 m/s 199.4 mm 8.3° 1000.1 hPa 7.0 m/s 7.8 mm 9.9° 1003.4 hPa 7.7 m/s 1.3 mm 9.7° 1005.0 hPa 10.6 m/s
05:00 9.3° 1001.7 hPa 7.0 m/s 34.6 mm 9.6° 1004.2 hPa 6.4 m/s 208.2 mm 8.1° 998.0 hPa 7.0 m/s 5.2 mm 9.7° 1002.1 hPa 8.2 m/s 2.1 mm 9.5° 1004.3 hPa 9.4 m/s
08:00 7.9° 1002.0 hPa 5.4 m/s 42.5 mm 9.7° 1003.2 hPa 7.7 m/s 217.6 mm 6.2° 1000.2 hPa 6.1 m/s 2.7 mm 7.9° 1002.3 hPa 2.4 m/s 1.2 mm 9.1° 1004.0 hPa 8.2 m/s
11:00 7.4° 1003.7 hPa 5.4 m/s 55.9 mm 9.4° 1003.6 hPa 6.6 m/s 225.6 mm 6.1° 1003.6 hPa 5.6 m/s 0.5 mm 7.5° 1003.6 hPa 4.9 m/s 8.3° 1004.0 hPa 5.7 m/s
14:00 7.1° 1005.2 hPa 6.5 m/s 0.0 mm 8.3° 1004.3 hPa 6.5 m/s 237.3 mm 5.9° 1006.7 hPa 6.5 m/s 0.0 mm 7.1° 1004.9 hPa 7.4 m/s 7.8° 1004.8 hPa 4.3 m/s
17:00 6.4° 1006.9 hPa 6.2 m/s 80.6 mm 8.3° 1005.8 hPa 5.6 m/s 239.9 mm 4.3° 1008.3 hPa 5.7 m/s 1.0 mm 6.5° 1006.7 hPa 6.8 m/s 7.3° 1006.6 hPa 4.8 m/s
20:00 5.7° 1008.8 hPa 5.6 m/s 80.8 mm 6.9° 1008.4 hPa 4.4 m/s 240.7 mm 3.6° 1010.8 hPa 5.1 m/s 0.8 mm 6.0° 1008.5 hPa 6.2 m/s 6.4° 1009.6 hPa 5.0 m/s
23:00 5.9° 1010.8 hPa 6.2 m/s 0.0 mm 5.9° 1010.6 hPa 6.4 m/s 6.2° 1012.1 hPa 4.1 m/s 0.1 mm
 08:45     18:02    Daglengte: 9:17 Woensdag 24 Okt
02:00 5.8° 1011.8 hPa 6.3 m/s 0.1 mm 5.8° 1011.7 hPa 6.5 m/s 6.1° 1013.5 hPa 3.9 m/s 0.1 mm
05:00 5.9° 1013.4 hPa 5.2 m/s 0.0 mm 5.9° 1013.3 hPa 5.5 m/s 5.3° 1014.1 hPa 2.9 m/s 0.0 mm
08:00 6.1° 1014.9 hPa 4.1 m/s 0.0 mm 6.1° 1014.9 hPa 4.4 m/s 5.6° 1014.7 hPa 1.3 m/s 0.0 mm
11:00 6.7° 1015.0 hPa 3.2 m/s 0.0 mm 6.8° 1015.0 hPa 3.5 m/s 5.9° 1015.2 hPa 0.3 m/s 0.0 mm
14:00 7.3° 1015.0 hPa 2.5 m/s 0.2 mm 7.4° 1015.0 hPa 2.6 m/s 6.1° 1014.6 hPa 1.9 m/s 0.2 mm
17:00 7.1° 1014.0 hPa 2.6 m/s 1.1 mm 7.2° 1014.1 hPa 2.4 m/s 6.2° 1012.9 hPa 4.8 m/s 1.1 mm
20:00 7.2° 1013.1 hPa 2.5 m/s 6.4 mm 7.0° 1013.2 hPa 2.2 m/s 9.6° 1011.4 hPa 6.0 m/s 6.4 mm
23:00 7.5° 1012.0 hPa 3.1 m/s 4.2 mm 7.3° 1012.2 hPa 2.7 m/s 9.4° 1010.0 hPa 7.0 m/s 4.2 mm
 08:47     17:59    Daglengte: 9:12 Donderdag 25 Okt
02:00 7.9° 1011.0 hPa 3.6 m/s 6.2 mm 7.7° 1011.2 hPa 3.2 m/s 10.1° 1009.2 hPa 7.8 m/s 6.2 mm
05:00 7.9° 1010.8 hPa 4.2 m/s 0.8 mm 7.8° 1011.0 hPa 3.9 m/s 9.4° 1008.9 hPa 7.1 m/s 0.8 mm
08:00 7.8° 1010.6 hPa 4.7 m/s 1.5 mm 7.8° 1010.8 hPa 4.6 m/s 8.0° 1008.6 hPa 5.3 m/s 1.5 mm
11:00 8.1° 1010.3 hPa 4.5 m/s 0.8 mm 8.2° 1010.4 hPa 4.4 m/s 7.8° 1008.7 hPa 5.9 m/s 0.8 mm
14:00 8.4° 1009.8 hPa 4.3 m/s 1.5 mm 8.5° 1010.0 hPa 4.2 m/s 7.6° 1008.1 hPa 5.8 m/s 1.5 mm
17:00 8.2° 1008.0 hPa 4.0 m/s 0.6 mm 8.2° 1008.0 hPa 4.0 m/s 7.4° 1007.3 hPa 4.8 m/s 0.6 mm
20:00 8.0° 1006.2 hPa 3.7 m/s 0.9 mm 8.0° 1006.1 hPa 3.7 m/s 7.5° 1007.0 hPa 3.1 m/s 0.9 mm
23:00 7.3° 1004.3 hPa 3.7 m/s 0.6 mm 7.3° 1004.1 hPa 3.7 m/s 7.2° 1006.9 hPa 4.2 m/s 0.6 mm
 08:50     17:57    Daglengte: 9:07 Vrijdag 26 Okt
02:00 6.7° 1002.5 hPa 3.7 m/s 1.2 mm 6.7° 1002.1 hPa 3.7 m/s 6.4° 1006.6 hPa 3.6 m/s 1.2 mm
05:00 6.7° 1001.0 hPa 3.7 m/s 0.2 mm 6.8° 1000.5 hPa 3.8 m/s 5.5° 1006.0 hPa 3.1 m/s 0.2 mm
08:00 6.7° 999.6 hPa 3.7 m/s 0.3 mm 6.9° 999.0 hPa 3.8 m/s 5.1° 1005.9 hPa 2.8 m/s 0.3 mm
11:00 6.7° 999.7 hPa 3.2 m/s 0.0 mm 6.8° 999.1 hPa 3.2 m/s 6.0° 1006.1 hPa 2.9 m/s 0.0 mm
14:00 6.6° 999.7 hPa 2.7 m/s 0.0 mm 6.6° 999.2 hPa 2.6 m/s 7.2° 1005.7 hPa 3.7 m/s 0.0 mm
17:00 6.0° 999.3 hPa 3.2 m/s 0.4 mm 5.9° 998.8 hPa 2.9 m/s 6.3° 1005.3 hPa 6.2 m/s 0.4 mm
20:00 5.3° 999.0 hPa 3.4 m/s 0.4 mm 5.3° 998.4 hPa 3.2 m/s 5.3° 1006.0 hPa 5.6 m/s 0.4 mm
23:00 4.5° 1000.0 hPa 3.2 m/s 0.0 mm 4.5° 999.4 hPa 3.0 m/s 4.9° 1006.6 hPa 5.2 m/s 0.0 mm
 08:52     17:54    Daglengte: 9:02 Zaterdag 27 Okt
02:00 3.8° 1001.0 hPa 2.9 m/s 0.0 mm 3.7° 1000.4 hPa 2.8 m/s 4.6° 1007.5 hPa 3.9 m/s 0.0 mm
05:00 3.3° 1002.0 hPa 3.1 m/s 0.0 mm 3.2° 1001.3 hPa 2.8 m/s 4.4° 1009.4 hPa 6.0 m/s 0.0 mm
08:00 2.7° 1003.0 hPa 3.2 m/s 0.0 mm 2.6° 1002.2 hPa 2.9 m/s 4.0° 1011.9 hPa 6.4 m/s 0.0 mm
11:00 4.5° 1004.9 hPa 3.6 m/s 0.0 mm 4.4° 1004.0 hPa 3.3 m/s 5.0° 1014.6 hPa 6.2 m/s 0.0 mm
14:00 6.3° 1006.7 hPa 4.1 m/s 0.0 mm 6.2° 1005.8 hPa 3.8 m/s 6.8° 1016.0 hPa 7.0 m/s 0.0 mm
17:00 5.6° 1007.4 hPa 4.0 m/s 0.0 mm 5.6° 1006.5 hPa 3.8 m/s 6.3° 1016.9 hPa 5.4 m/s 0.0 mm
20:00 4.9° 1008.2 hPa 3.9 m/s 0.0 mm 4.9° 1007.2 hPa 3.9 m/s 5.0° 1019.6 hPa 4.5 m/s 0.0 mm
 08:55     17:51    Daglengte: 8:56 Zondag 28 Okt
02:00 2.2° 1013.7 hPa 3.2 m/s 0.0 mm 2.1° 1012.6 hPa 3.2 m/s 3.7° 1025.2 hPa 3.2 m/s 0.0 mm
07:00 1.0° 1013.8 hPa 2.8 m/s 0.0 mm 0.8° 1012.6 hPa 2.8 m/s 3.0° 1026.7 hPa 2.8 m/s 0.0 mm
13:00 4.6° 1016.8 hPa 2.2 m/s 0.0 mm 4.5° 1015.8 hPa 2.3 m/s 5.8° 1028.0 hPa 1.6 m/s 0.0 mm
19:00 2.0° 1018.1 hPa 2.6 m/s 0.0 mm 1.9° 1017.2 hPa 2.7 m/s 3.6° 1027.7 hPa 1.4 m/s 0.0 mm
 08:58     17:48    Daglengte: 8:50 Maandag 29 Okt
01:00 0.7° 1018.8 hPa 3.2 m/s 0.3 mm 0.3° 1018.4 hPa 3.0 m/s 5.1° 1023.7 hPa 5.3 m/s 0.3 mm
07:00 0.3° 1014.2 hPa 3.6 m/s 5.9 mm -0.2° 1014.0 hPa 3.1 m/s 6.4° 1016.4 hPa 9.3 m/s 5.9 mm
13:00 4.2° 1013.4 hPa 2.7 m/s 22.9 mm 3.9° 1013.6 hPa 2.2 m/s 7.5° 1011.4 hPa 8.4 m/s 22.9 mm
19:00 2.3° 1014.4 hPa 2.9 m/s 22.6 mm 1.7° 1014.8 hPa 2.9 m/s 8.7° 1009.6 hPa 2.5 m/s 22.6 mm
 09:00     17:46    Daglengte: 8:46 Dinsdag 30 Okt
01:00 9.6° 1005.6 hPa 7.7 m/s 5.2 mm 9.6° 1005.6 hPa 7.7 m/s 5.2 mm
07:00 11.2° 1001.3 hPa 11.9 m/s 25.1 mm 11.2° 1001.3 hPa 11.9 m/s 25.1 mm
13:00 4.4° 1015.6 hPa 1.8 m/s 1.4 mm
19:00 3.3° 1015.2 hPa 1.4 m/s 2.2 mm
 09:03     17:43    Daglengte: 8:40 Woensdag 31 Okt
01:00 3.0° 1014.6 hPa 1.2 m/s 2.5 mm
07:00 2.4° 1014.1 hPa 1.1 m/s 2.1 mm
13:00 4.0° 1013.1 hPa 2.4 m/s 1.1 mm
19:00 3.2° 1011.1 hPa 2.6 m/s 1.8 mm
 09:06     17:40    Daglengte: 8:34 Donderdag 01 Nov
01:00 3.1° 1009.1 hPa 2.7 m/s 2.3 mm
07:00 2.8° 1007.2 hPa 2.0 m/s 1.8 mm
13:00 4.3° 1006.0 hPa 1.4 m/s 1.4 mm
19:00 3.4° 1004.6 hPa 1.8 m/s 2.0 mm
 09:08     17:38    Daglengte: 8:30 Vrijdag 02 Nov
01:00 3.0° 1004.2 hPa 0.4 m/s 1.7 mm
07:00 2.4° 1003.8 hPa 0.9 m/s 1.0 mm
13:00 3.7° 1004.0 hPa 0.8 m/s 1.9 mm
19:00 2.7° 1004.4 hPa 1.5 m/s 1.4 mm
 09:11     17:35    Daglengte: 8:24 Zaterdag 03 Nov
01:00 2.3° 1004.6 hPa 2.0 m/s 1.0 mm
07:00 2.2° 1004.1 hPa 2.2 m/s 0.9 mm
13:00 3.7° 1003.9 hPa 1.5 m/s 1.0 mm
19:00 2.9° 1003.2 hPa 1.9 m/s 1.8 mm
 09:13     17:32    Daglengte: 8:19 Zondag 04 Nov
01:00 2.9° 1002.9 hPa 2.4 m/s 2.0 mm
07:00 2.8° 1002.2 hPa 2.4 m/s 1.9 mm
13:00 4.2° 1002.7 hPa 0.9 m/s 2.4 mm
FMI Hirlam - 7.5 km EWN WRFDA - 12 km DWD ICON - 7 km GFS - 25 km Basiskaart






























































Updatetijd (Europe/Amsterdam) Resolutie Lengte Stap
FMI Hirlam 19:00, 01:00, 07:00, 13:00 7.5 km 49h 1h
EWN WRFDA 15:45, 21:45, 03:45, 09:45 12 km 73h 1h
DWD ICON 18:45, 00:45, 06:45, 12:45 7 km 75h 1h
GFS 15:15, 21:15, 03:15, 09:15 25 km 237h 3h
30+ mm
25-30 mm
20-25 mm
15-20 mm
10-15 mm
6-10 mm
4-6 mm
2-4 mm
1-2 mm
0.5-1 mm
0.2-0.5 mm
0.1-0.2 mm
30+ mm
25-30 mm
20-25 mm
15-20 mm
10-15 mm
6-10 mm
4-6 mm
2-4 mm
1-2 mm
0.5-1 mm
0.2-0.5 mm
0.1-0.2 mm
Sneeuwval
Natte sneeuw
Hagel
Vorst
30+ mm
25-30 mm
20-25 mm
15-20 mm
10-15 mm
6-10 mm
4-6 mm
2-4 mm
1-2 mm
0.5-1 mm
0.2-0.5 mm
0.1-0.2 mm
Sneeuwval
Natte sneeuw
Hagel
Vorst
Onweer
50 mm
40 mm
30 mm
26 mm
22 mm
18 mm
14 mm
10 mm
9 mm
8 mm
7 mm
6 mm
5 mm
4.5 mm
4 mm
3.5 mm
3 mm
2.5 mm
2 mm
1.5 mm
1 mm
0.8 mm
0.6 mm
0.4 mm
0.2 mm
0.05 mm
35°
30°
25°
20°
15°
10°